www.pogodaiklimat.ru

Погода и климат >> Архив погоды >> Россия >> Архангельская область >> Малые Кармакулы


ПОГОДА в Малых Кармакулах

АРХИВ ПОГОДЫ в Малых Кармакулах

Время (UTC), дата Ветер
(напр.,м/с)
 
Видим.   Явления Облачность Т
(С)
Тd
(С)
f
(%)
Тe
(С)
Тes
(С)
Комфортность P
(гПа)
Po
(гПа)
Тmin
(С)
Tmax
(С)
R
(мм)
R24
(мм)
S
(см)
18 11.10 С 3
{14}
10 км слабый ливневой снег 6/4 300 м
[Cb cap Ci fib]
+0.3 -0.5 94 -4 -4 1000.0 998.2
21 11.10 СВ 2 20 км {ливн. осадки} 9/8 500 м
[Cu med, cong Ci fib]
-1.0 -2.3 91 -5 -5 1000.6 998.8
00 12.10 С 6 20 км {ливн. осадки} 6/4 300 м
[Cu Sc Ac trans Ci fib]
+0.5 -1.2 88 -6 -6 1002.5 1000.7
03 12.10 С 7
{11}
20 км 4/1 600 м
[Sc Ac trans Ci fib]
+0.5 -1.2 88 -7 -7 1004.8 1003.0 -1.5 0.4
06 12.10 С 12
{15}
4000 м слабый ливневой дождь 9/8 480 м
[Cb cap Ac trans]
+1.9 +0.8 92 -6 -6 1007.0 1005.2
09 12.10 С 10
{15}
20 км {ливн. осадки} 8/4 300 м
[Cu med, cong Ac trans Ci fib]
+2.6 +1.3 91 -5 -5 1009.2 1007.4
12 12.10 С 11
{15}
20 км в посл. час ливневой дождь 9/4 300 м
[Cu med, cong Ac trans Ci fib]
+2.3 +1.0 91 -6 -6 1010.5 1008.7
15 12.10 С 11
{15}
20 км {ливн. осадки} 9/3 300 м
[Cu med, cong Ac trans Ci fib]
+3.2 +1.7 90 -4 -4 1011.2 1009.4 +3.2 0.3
18 12.10 С 11
{17}
20 км {ливн. осадки} 6/3 300 м
[Cu med, cong Ac trans Ci fib]
+2.8 +1.2 89 -5 -5 1012.1 1010.3
21 12.10 С 12
{19}
10 км слабый ливневой дождь 9/4 300 м
[Cb cap Ac trans Ci fib]
+2.3 +1.0 91 -6 -6 1012.4 1010.6
00 13.10 С 10
{16}
20 км {ливн. осадки} 6/3 300 м
[Cu med, cong Ci fib]
+1.6 +0.2 90 -6 -6 1013.5 1011.7
03 13.10 С 12
{18}
20 км 9/8 600 м
[Cu Sc Ac trans]
+2.0 -1.1 80 -6 -6 1014.7 1012.9 +1.6 0.3
06 13.10 С 9
{17}
20 км 4/3 300 м
[Cu Sc Ac trans]
+1.7 -0.1 88 -6 -6 1015.6 1013.8
09 13.10 С 11
{17}
20 км 4/3 300 м
[Cu Sc Ac trans]
+2.0 -0.5 83 -6 -6 1016.7 1014.9
12 13.10 С 9
{14}
20 км {ливн. осадки} 8/8 720 м
[Cu Sc Ac trans]
+1.8 +0.2 89 -6 -6 1018.2 1016.4
15 13.10 С 8
{12}
20 км 6/4 300 м
[Cu Sc Ac trans Ci fib]
+1.5 -0.5 87 -6 -6 1018.3 1016.5 +2.1 0.1
18 13.10 С 6
{11}
20 км 3/1 600 м
[Sc Ac trans]
+0.8 -0.9 88 -6 -6 1018.6 1016.8
21 13.10 Ю 1
{10}
20 км 4/1 300 м
[Cu hum Ac trans Ci fib]
-0.4 -2.2 88 -2 -2 1018.6 1016.8
00 14.10 ЮВ 2 20 км 4/0
[Ac trans Ci fib]
-2.1 -3.3 91 -6 -6 1018.0 1016.2
03 14.10 ЮВ 3 20 км 9/0
[Ac trans Ci fib]
-2.5 -4.1 89 -8 -8 1016.4 1014.6 -2.5
06 14.10 ЮВ 4 20 км 9/0
[Ac trans Ci fib]
-1.2 -4.5 78 -7 -7 1015.9 1014.1
09 14.10 ЮВ 5 20 км 10/1 600 м
[Sc Ac As]
-0.6 -3.4 81 -7 -7 1014.5 1012.7
12 14.10 ЮВ 5 20 км 10/4 600 м
[Sc Ac As]
-0.1 -2.5 84 -6 -6 1013.9 1012.1
15 14.10 В 5 20 км 10/3 600 м
[Sc Ac As]
0.0 -2.7 82 -6 -6 1012.7 1010.9 0.0
18 14.10 ЮВ 6 20 км 10/0
[Ac As]
0.0 -2.4 84 -7 -7 1011.8 1010.0
21 14.10 ЮВ 5
{11}
20 км 10/0
[Ac As]
+1.2 -1.4 83 -5 -5 1010.6 1008.8
00 15.10 ЮВ 7
{11}
20 км 10/0
[Ac As]
+1.4 -0.5 87 -5 -5 1009.9 1008.1
03 15.10 ЮВ 9
{14}
20 км 9/3
[Sc Ac trans]
+1.1 -0.3 90 -7 -7 1008.2 1006.4 0.0
06 15.10 ЮВ 9
{13}
20 км 9/3 600 м
[Sc Ac trans]
+1.6 +0.2 90 -6 -6 1005.7 1003.9
09 15.10 ЮВ 9
{14}
10 км слабый ливневой дождь 10/4 300 м
[Cb cap Ac und]
+1.9 +0.8 92 -5 -5 1002.8 1001.0
12 15.10 ЮВ 12
{17}
10 км слабый ливневой дождь 10/6 360 м
[Cb cap Ac und]
+1.3 +0.5 94 -7 -7 998.2 996.4
15 15.10 ЮВ 16
{23}
10 км слабый ливневой дождь 10/8 360 м
[Cb cap Ac und]
+1.5 +0.4 92 -8 -8 991.2 989.4 +2.0 6
18 15.10 ЮВ 12
{23}
10 км слабый ливневой дождь 10/4 300 м
[Cb cap Ac und]
+1.6 +0.5 92 -7 -7 985.7 983.9
21 15.10 ЮВ 10
{18}
10 км слабый ливневой дождь 10/8 400 м
[Cb cap Ac und]
+1.4 +0.3 92 -6 -6 983.3 981.6
00 16.10 З 15
{21}
10 км слабый ливневой дождь 10/6 330 м
[Cb cap Ac und]
+3.7 +2.4 91 -5 -5 984.2 982.5
03 16.10 З 10
{21}
10 км слабый ливневой дождь 10/8 360 м
[Cb cap Ac und]
+3.4 +2.1 91 -4 -4 984.3 982.6 +1.4 6
06 16.10 С 4
{12}
4000 м в посл. час ливневой дождь 10/9 570 м
[Sc Ac und]
+1.5 +0.4 92 -4 -4 987.1 985.3
09 16.10 штиль 0 4000 м слабый дождь {снег} 10/8 210 м
[Frnb As op]
+0.9 -0.2 92 -0 -0 991.7 989.9
12 16.10 С 6 20 км в посл. час дождь {снег} 10/8 540 м
[Sc Ac As]
+1.4 +0.3 92 -5 -5 994.1 992.3
15 16.10 СВ 2 20 км 10/10 570 м
[Sc]
+0.7 -0.4 92 -3 -3 996.2 994.4 +3.9 1
18 16.10 В 3 4000 м слабый снег 10/8 210 м
[Frnb As op]
+0.1 -1.0 92 -5 -5 998.2 996.4
21 16.10 ЮВ 2 4000 м слабый снег 10/9 210 м
[Frnb As op]
-0.4 -1.6 92 -4 -4 999.7 997.9
00 17.10 ЮВ 2 4000 м слабый снег 10/8 210 м
[Frnb As op]
-0.6 -1.5 94 -4 -4 1000.9 999.1
03 17.10 В 4 4000 м слабый снег 10/8 240 м
[Frnb As op]
-1.3 -2.3 93 -7 -7 1002.4 1000.6 -1.3 2
06 17.10 Ю 2 10 км слабый ливневой снег 8/6 330 м
[Cb cap Ac trans Ci fib]
-0.5 -1.7 92 -4 -4 1004.2 1002.4
09 17.10 ЮВ 2 20 км {ливн. осадки} 10/8 420 м
[Cu Sc Ac und]
-0.1 -1.0 94 -4 -4 1006.5 1004.7
12 17.10 Ю 4 20 км {ливн. осадки} 9/8 450 м
[Sc Ac trans]
+0.4 -0.5 94 -5 -5 1007.9 1006.1
15 17.10 Ю 4 20 км 9/8 570 м
[Sc Ac trans]
+1.2 +0.4 94 -4 -4 1008.9 1007.1 +1.2 0.1
18 17.10 Ю 6 10 км слабая морось 10/10 200 м
[St]
+1.8 +0.7 92 -4 -4 1009.1 1007.3
21 17.10 ЮЗ 4 20 км {морось} 10/8 500 м
[Sc Ac und]
+2.0 +0.9 92 -3 -3 1008.6 1006.8
00 18.10 Ю 5 4000 м слабая морось 10/10 270 м
[St]
+1.7 +0.9 94 -4 -4 1008.0 1006.2
03 18.10 Ю 4 20 км {морось} 9/8 480 м
[Sc Ac trans]
+1.8 +0.7 92 -3 -3 1006.3 1004.5 +1.2 0.6
06 18.10 Ю 5 20 км {морось} 9/8 540 м
[Sc Ac trans]
+2.1 +1.1 93 -4 -4 1005.3 1003.5
09 18.10 Ю 6
{11}
20 км {дождь, морось} 9/9 500 м
[Sc]
+2.3 +1.5 94 -4 -4 1004.6 1002.8
12 18.10 Ю 3 20 км {дождь, морось} 9/8 600 м
[Sc Ac trans]
+2.3 +1.0 91 -2 -2 1003.8 1002.0
15 18.10 ЮВ 4 20 км 9/8 600 м
[Sc Ac trans Ci fib]
+2.0 +0.7 91 -3 -3 1003.4 1001.6 +2.5 0.4

 

Местоположение метеостанции Малые Кармакулы (Архангельская область, Россия): широта 72.36 долгота 52.71 высота над уровнем моря 14 м.

В архиве по умолчанию представлена погода в Малых Кармакулах за последнюю неделю. Архивные данные за месяц целиком и за предыдущие месяцы, начиная с января 2011 года, Вы можете получить, выбрав интересующий диапазон дат из раскрывающегося списка и нажав кнопку "Ввод!".


*Определитесь, кто Вы:
робот инопланетянин человек

Внимание! Время в таблицах - всемирное. Для получения местного времени необходимо прибавить поправку, которая в Малых Кармакулах равна 3 ч.

Смотрите также архив погоды в соседних городах и на ближайших метеорологических станциях:

Погода в Имени Федорова (Ненецкий АО, Россия) (310 км)
Погода на Колгуевом Острове (Ненецкий АО, Россия) (341 км)
Погода в Ходоварихе (Ненецкий АО, Россия) (383 км)
Погода на Мысе Белый Нос (Ненецкий АО, Россия) (409 км)
Погода в Бугрино (Ненецкий АО, Россия) (415 км)
Погода в Амдерме (Ненецкий АО, Россия) (433 км)
Погода в Сенгейском Шаре (Ненецкий АО, Россия) (435 км)
Погода на Мысе Константиновском (Ненецкий АО, Россия) (436 км)
Погода в Варандее (Ненецкий АО, Россия) (440 км)
Погода в Нарьян-Маре (Ненецкий АО, Россия) (526 км)

Пояснения к столбцам:

Ветер - указаны скорость ветра в м/с - средняя за 10 мин, порывы в срок и между сроками (в фигурных скобках) и направление, откуда дует ветер: С - северный, СВ - северо-восточный, В - восточный, ЮВ - юго-восточный, Ю - южный, ЮЗ - юго-западный, З - западный, СЗ - северо-западный.
Видимость - горизонтальная дальность видимости в метрах или километрах. При видимости от 1 до 10 км при отсутствии осадков обычно наблюдается дымка, при ухудшении видимости до 1 км и менее - туман. В сухую погоду видимость может ухудшаться дымом, пылью или мглою.
Явления - указаны атмосферные явления, наблюдавшиеся в срок или в последний час перед сроком; фигурными скобками обозначены явления, наблюдавшиеся между сроками (за 1-3 часа до срока); квадратными скобками обозначены град или гололедные отложения с указанием их диаметра в мм.
Облачность - указаны через наклонную черту общая и нижняя облачность в баллах и высота нижней границы облаков в метрах; квадратными скобками обозначены формы облаков: Ci - перистые, Cs - перисто-слоистые, Cc - перисто-кучевые, Ac - высококучевые, As - высокослоистые, Sc - слоисто-кучевые, Ns - слоисто-дождевые, Cu - кучевые, Cb - кучево-дождевые. Подробнее классификацию облаков см. в Атласе облаков (PDF).
T - Температура воздуха - температура, измеренная на высоте 2 м над землей.
Td - Температура точки росы - температура, при понижении до которой содержащийся в воздухе водяной пар достигнет насыщения.
f - Относительная влажность воздуха - влажноcть воздуха, измеренная на высоте 2 м над землей.
Te - Эффективная температура - температура, которую ощущает одетый по сезону человек в тени. Характеристика душности погоды. При расчете учитывается влияние влажности воздуха и скорости ветра на теплоощущения человека.
Tes - Эффективная температура на солнце - температура, которую ощущает человек, с поправкой на солнечный нагрев. Характеристика знойности погоды. Зависит от высоты солнца над горизонтом, облачности и скорости ветра. Ночью, в пасмурную погоду, а также при ветре 12 м/с и более поправка равна нулю.
P - Атмосферное давление - приведенное к уровню моря атмосферное давление.
Po - Атмосферное давление - измеренное на уровне метеостанции атмосферное давление.
Tmin - Минимальная температура - минимум температуры воздуха на высоте 2 м над землей.
Tmax - Максимальная температура - максимум температуры воздуха на высоте 2 м над землей.
R - Количество осадков - Количество выпавших осадков за период времени, мм. При наведении курсора мыши на число - период времени, за который выпало указанное количество осадков.
R24 - Количество осадков - Количество выпавших осадков за 24 часа, мм.
S - Снежный покров - Высота снежного покрова, см. При наведении курсора мыши на число - состояние снежного покрова и степень покрытия местности в баллах.